Погода в Эль-Хардже

Саудовская Аравия     24°09′37″N   47°19′55″E
темп.,
°C
ветер,
м/с
пор.,
м/с
влажн.,
%
обл.,
%
осадки,
мм/ч
давл.,
гПа
погр.,
м
17 апреля, сб
сб1700:00+24всв3311100 0.0 101425
03:00+23ссз231299 0.0 101422
06:00+23сз4513100 0.0 101759
09:00+26сз3411100 0.0 1018392
12:00+29ссв349100 0.0 1016783
15:00+32св44937 0.0 10131723
18:00+30в231011 0.0 101315
21:00+26вюв2212100 0.0 101513
18 апреля, вс
вс1800:00+25с2213100 0.0 101511
03:00+24ссз4415100 0.0 101534
06:00+23сз441891 0.0 101736
09:00+30ссз441389 0.0 1018695
12:00+33сз451096 0.0 10161827
15:00+33з451057 0.0 10143149
18:00+31сз33110 0.0 101421
21:00+27юз111518 0.0 101512
19 апреля, пн
пн1900:00+25сз22200 0.0 101511
03:00+25с44160 0.0 101417
06:00+24с44170 0.0 101525
09:00+31зсз33110 0.0 1015624
12:00+36сз5780 0.0 10133320
15:00+37с6680 0.0 10104045
18:00+34ссв4590 0.0 101045
21:00+30с44120 0.0 101226
20 апреля, вт
вт2000:00+28ссз33140 0.0 101116
03:00+25с33180 0.0 101114
06:00+25ссз33190 0.0 101220
09:00+33с45120 0.0 1013973
12:00+37с56100 0.0 10102896
15:00+38ссв5690 0.0 10073235
18:00+35ссв46100 0.0 100865
21:00+31ссв44134 0.0 100923
21 апреля, ср
ср2100:00+28юз1115100 0.0 100911
03:00+28сз3315100 0.0 100913
06:00+27ссз4516100 0.0 101052
09:00+36с56115 0.0 10111406
12:00+39ссв56755 0.0 10093360
15:00+40ссв77648 0.0 10063880
18:00+36св577100 0.0 100782
21:00+31всв5610100 0.0 101057